Location: ???????
(41.9144°N, 44.5432°E)
Time: 18:26:27
(UTC+00:00)

Daily predictions for brighter satellites

Satellite Brightness Start Highest point End
(mag) Time Altitude Azimuth Time Altitude Azimuth Time Altitude Azimuth
CSL-04 Rocket 4.1 16:37:59 10° S 16:43:21 68° WSW 16:48:41 10° NNW
Cosmos 2322 Rocket 3.1 16:40:11 10° N 16:45:14 32° ENE 16:50:13 10° ESE
Atlas Centaur 2 3.7 16:43:02 10° WSW 16:46:32 17° SSW 16:49:35 10° SSE
Cosmos 158 Rocket 4.0 16:41:40 10° SSW 16:46:50 81° ESE 16:52:11 10° NNE
BREEZE-M DEB (TANK) 3.7 16:45:33 10° NW 16:48:26 53° NNE 16:56:12 10° ESE
Cosmos 332 Rocket 3.9 16:47:45 10° NNW 16:52:39 67° ENE 16:57:31 10° SSE
Cosmos 1076 Rocket 3.7 16:51:16 10° S 16:55:36 81° W 17:00:00 10° N
Cosmos 2219 Rocket 4.3 16:56:08 10° NNE 16:58:02 12° NE 16:59:55 10° ENE
SJ-6B 2.9 16:56:43 10° S 17:00:25 75° W 17:04:10 10° NNW
Cosmos 1151 Rocket 4.3 17:02:51 10° NNE 17:06:29 25° ENE 17:09:34 13° SE
ATLAS 5 CENTAUR R/B 4.4 17:04:04 10° N 17:06:57 14° NNE 17:10:04 10° ENE
IGS 5A 4.1 17:03:35 10° SE 17:07:24 38° ENE 17:11:15 10° N
Cosmos 304 Rocket 3.8 17:04:54 10° NNW 17:09:43 90° SE 17:14:29 10° SSE
Cosmos 923 Rocket 4.0 17:07:56 10° SSW 17:13:16 82° ESE 17:18:38 10° NNE
Meteor 1-26 Rocket 4.5 17:08:27 10° N 17:14:13 56° ENE 17:19:46 10° SSE
SL-27 R/B 3.4 17:14:38 10° SSE 17:17:46 29° ESE 17:20:56 10° NE
SL-16 R/B 2.2 17:12:29 10° NNW 17:18:11 75° ENE 17:23:24 12° SSE
Landsat 7 4.1 17:15:54 12° SE 17:20:06 49° ENE 17:24:43 10° N
COSMOS 2455 3.8 17:15:34 10° SSE 17:20:19 25° ESE 17:25:07 10° NE
Meteor 2-19 Rocket 4.4 17:17:26 10° S 17:23:29 90° W 17:29:35 10° N
Cosmos 2056 Rocket 4.2 17:21:29 10° N 17:26:30 40° ENE 17:30:02 18° SE
SPOT 1/Viking Rocket 4.2 17:24:20 16° SE 17:28:08 41° ENE 17:33:00 10° N
Cosmos 1328 Rocket 4.4 17:25:17 10° N 17:29:17 32° ENE 17:31:39 20° SE
Cosmos 1766 Rocket 3.8 17:26:12 10° SSE 17:30:22 46° E 17:34:33 10° NNE
Resurs 01 Rocket 1.6 17:26:37 13° SSE 17:30:29 69° ENE 17:34:55 10° N
NOSS 2-1 (E) 2.7 17:27:51 10° SSW 17:31:12 86° ESE 17:34:31 10° NE
Cosmos 220 Rocket 4.2 17:27:49 10° NNW 17:32:08 57° ENE 17:35:02 20° SE
Cosmos 2237 4.4 17:28:25 10° NNW 17:34:05 59° ENE 17:38:06 19° SE
COSMOS 2428 4.5 17:34:22 10° N 17:38:19 19° NE 17:41:43 12° E
OBJECT-B 3.6 17:36:29 10° SW 17:38:34 16° W 17:40:42 10° NW
MetOp-B 4.3 17:34:45 17° SE 17:38:45 58° ENE 17:44:01 10° N
Meteor 2-3 Rocket 4.0 17:33:19 10° SSW 17:38:58 73° W 17:44:45 10° N
Cosmos 1271 Rocket 3.0 17:36:10 10° NNW 17:40:10 71° W 17:43:40 13° S
Cosmos 2151 4.3 17:37:54 10° SSW 17:41:55 41° WNW 17:46:00 10° N
Centaur D AC-28 4.4 17:36:55 10° SW 17:43:02 40° SSE 18:16:16 10° ESE
Centaur D AC-28 4.4 17:36:55 10° SW 17:43:02 40° SSE 18:16:15 10° ESE
Centaur D AC-28 4.4 17:36:54 10° SW 17:43:02 40° SSE 18:16:15 10° ESE
Centaur D AC-28 4.4 17:36:54 10° SW 17:43:02 40° SSE 18:16:16 10° ESE
Centaur D AC-28 4.4 17:36:54 10° SW 17:43:03 40° SSE 18:16:16 10° ESE
Cosmos 1680 Rocket 3.9 17:40:56 10° SSW 17:46:10 68° WNW 17:51:25 10° NNE
Cosmos 2112 Rocket 4.2 17:42:19 10° SSW 17:47:37 78° WNW 17:52:54 10° NNE
Cosmos 1371 Rocket 4.1 17:43:23 10° NNW 17:48:46 71° ENE 17:52:05 23° SSE
Cosmos 2360 Rocket 2.3 17:47:28 10° NNW 17:53:05 64° ENE 17:56:16 26° SE
ARIANE 5 R/B 3.5 17:53:32 26° ESE 17:55:07 34° ENE 17:59:07 10° N
ERS-2 3.2 17:52:01 10° N 17:55:30 44° WNW 17:58:58 10° SW
Meteor 2-6 Rocket 4.2 17:52:50 10° N 17:58:08 57° ENE 18:00:54 28° SE
Gbstr 26 Del rocket 3.9 17:56:32 10° WNW 17:59:53 31° SW 18:01:21 23° S
USA 276 4.4 18:01:22 10° W 18:03:11 14° SW 18:03:50 14° SSW
Lacrosse 5 3.8 18:09:48 14° ENE 18:09:48 14° ENE 18:10:41 10° ENE
Cosmos 1655 Rocket 4.3 18:05:36 26° SSE 18:08:51 48° E 18:14:57 10° NNE
Cosmos 1500 Rocket 4.3 18:09:43 33° E 18:10:05 33° E 18:14:05 10° NNE
Cosmos 1862 3.2 18:10:58 33° S 18:12:42 85° E 18:16:41 10° N
SPOT 3 Rocket 3.9 18:09:21 19° S 18:13:02 61° WSW 18:18:13 10° NNW
Meteor 2-14 Rocket 4.4 18:09:14 14° S 18:14:38 86° E 18:20:49 10° N
Cosmos 1782 4.0 18:11:43 10° NNW 18:15:28 39° W 18:18:01 18° SSW
CZ-2C R/B 3.6 18:11:01 10° NNE 18:15:31 82° WNW 18:18:40 19° SSW
Cosmos 1833 4.3 18:11:49 10° SSW 18:17:35 79° WNW 18:23:24 10° NNE
COSMOS 2487 3.3 18:21:24 36° ENE 18:21:24 36° ENE 18:23:43 10° NNE
Cosmos 2297 Rocket 4.4 18:23:09 10° ENE 18:23:09 10° ENE 18:23:11 10° ENE
Cosmos 1812 2.9 18:18:07 10° NNW 18:21:58 70° W 18:23:04 43° SSW
USA 245 3.6 18:21:44 37° S 18:23:27 73° WSW 18:27:13 10° NNW
Cosmos 2333 Rocket 2.4 18:18:56 10° NNW 18:24:30 56° ENE 18:26:27 38° ESE
Cosmos 1408 Rocket 3.4 18:24:14 36° S 18:25:59 86° W 18:30:20 10° N
Cosmos 1174 3.3 18:24:02 10° NNW 18:26:46 71° NW 18:26:46 71° NW
Cosmos 1624 Rocket 4.4 18:21:58 10° NNW 18:27:06 59° WSW 18:29:32 30° S
Cosmos 2322 3.9 18:23:01 10° NNW 18:28:41 58° ENE 18:30:34 39° ESE
Cosmos 2237 Rocket 4.1 18:25:31 10° N 18:29:16 18° NE 18:31:38 14° ENE
Cosmos 2322 Rocket 3.3 18:24:09 10° NW 18:29:17 38° WSW 18:32:37 19° SSW
GP-B 4.1 18:27:15 10° NNW 18:31:28 43° W 18:34:25 18° SSW
Cosmos 1743 Rocket 3.6 18:31:50 55° ESE 18:32:12 57° E 18:36:33 10° NNE
Terra 2.1 18:32:18 44° ESE 18:33:07 49° ENE 18:37:43 10° N
Cosmos 1420 Rocket 4.0 18:27:48 10° NNW 18:33:08 80° WSW 18:34:58 42° S
CARTOSAT-1 3.7 18:35:20 47° SSW 18:36:26 70° W 18:40:45 10° NNW
Meteor 1-27 Rocket 3.8 18:35:28 10° N 18:41:09 63° ENE 18:42:37 47° SE
ERS-1 Rocket 2.9 18:40:17 52° SSE 18:41:33 85° ENE 18:46:36 10° NNW
Cosmos 292 Rocket 3.9 18:38:05 10° NNW 18:42:50 66° WSW 18:43:58 48° SSW
Cosmos 2219 Rocket 2.2 18:37:34 10° NNW 18:43:08 65° ENE 18:44:29 49° ESE
ATLAS 5 CENTAUR R/B 2.7 18:47:07 10° NNW 18:52:39 55° NE 18:54:32 41° ESE
Cosmos 1515 Rocket 4.2 18:52:27 10° NNW 18:56:43 49° W 18:57:30 43° SW
Cosmos 1452 Rocket 3.4 18:53:17 10° NNW 18:58:35 87° ENE 18:59:19 67° SSE
Cosmos 489 Rocket 4.4 18:59:56 48° S 19:01:46 74° ESE 19:08:08 10° NNE
Cosmos 2266 Rocket 4.1 19:01:39 34° SSW 19:04:25 72° W 19:10:43 10° N
SPOT 5 3.0 19:04:20 51° WSW 19:04:43 53° W 19:09:05 10° NNW
COSMOS 2455 3.5 19:00:00 10° SW 19:05:51 54° NW 19:11:47 10° NNE
Resurs 01 Rocket 4.4 19:06:06 10° WSW 19:07:25 11° W 19:08:44 10° WNW
Cosmos 972 Rocket 4.2 19:06:52 39° SW 19:08:43 65° WNW 19:13:39 10° NNE
Cosmos 1331 Rocket 4.1 19:11:46 10° NNW 19:16:55 59° ENE 19:17:00 59° ENE
Cosmos 1110 Rocket 4.0 19:11:59 10° NNW 19:17:17 66° ENE 19:17:27 66° E
Meteor 1-25 Rocket 4.1 19:17:15 70° ESE 19:17:27 70° E 19:22:59 10° NNE
Cosmos 2084 Rocket 4.3 19:14:48 10° NNW 19:18:27 44° NNE 19:18:27 44° NNE
Cosmos 2285 Rocket 3.9 19:12:46 10° NNW 19:19:05 81° WSW 19:20:15 61° S
COSMOS 2428 2.6 19:17:32 10° NNW 19:23:14 76° WSW 19:23:43 70° SSW
Cosmos 1707 Rocket 4.4 19:19:12 10° N 19:22:33 43° NE 19:22:33 43° NE
Cosmos 2315 Rocket 4.0 19:17:12 10° N 19:23:33 80° W 19:24:52 59° SSW
Cosmos 2228 Rocket 3.5 19:23:06 10° NNW 19:27:06 57° WNW 19:27:06 57° WNW
ARIANE 5 R/B 4.4 19:31:05 22° WSW 19:31:37 23° W 19:35:08 10° NW
IRIDIUM 104 4.4 19:26:24 10° N 19:31:37 70° W 19:31:50 69° WSW
Cosmos 494 Rocket 4.3 19:31:51 55° WSW 19:32:33 61° WNW 19:37:39 10° NNE
H-2A R/B 4.1 19:30:27 10° N 19:34:01 53° NW 19:34:01 53° NW
Cosmos 2360 Rocket 4.1 19:32:50 10° WNW 19:36:28 18° W 19:38:03 16° WSW
Cosmos 2219 4.1 19:38:07 37° ENE 19:38:07 37° ENE 19:42:10 10° NE
NOSS 0 Rocket 3.8 19:31:19 10° NNW 19:37:35 81° ENE 19:38:06 74° ESE
Cosmos 1805 Rocket 4.4 19:37:53 47° WNW 19:37:53 47° WNW 19:41:58 10° N
Meteor 1-19 Rocket 4.1 19:37:44 10° N 19:43:03 76° NE 19:43:03 76° NE
ALOS 2 4.3 19:47:25 26° NE 19:47:25 26° NE 19:50:12 10° N
Lacrosse 5 2.2 19:48:53 59° WNW 19:49:18 61° NW 19:54:20 10° NE
Cosmos 1980 3.7 19:46:42 10° NNW 19:52:11 73° NE 19:52:11 73° NE
USA 229 DEB 4.1 19:45:19 10° NW 19:52:34 57° WSW 19:53:40 53° SSW
USA 229 4.1 19:45:24 10° NW 19:52:40 58° WSW 19:53:46 53° SSW
Nadezhda 1 Rocket 4.3 19:51:07 10° N 19:57:23 54° ENE 19:57:32 54° E
USA 267 3.3 19:53:01 10° NE 19:58:43 59° E 19:58:43 59° E
COBE Rocket 4.4 20:05:06 53° NNW 20:05:06 53° NNW 20:08:47 10° NNW
Cosmos 2297 Rocket 2.2 20:04:55 74° NNE 20:04:55 74° NNE 20:10:03 10° NNE
Cosmos 2333 Rocket 3.9 20:04:12 10° NW 20:08:18 21° W 20:08:27 21° WSW
Terra 3.9 20:11:11 18° W 20:11:11 18° W 20:14:19 10° NW
Meteor 1-14 Rocket 4.3 20:13:31 73° N 20:13:31 73° N 20:18:40 10° N
Cosmos 2237 Rocket 2.3 20:08:20 10° NNW 20:13:27 71° NW 20:13:27 71° NW
Cosmos 1302 Rocket 4.4 20:09:49 10° NNW 20:14:08 61° NNW 20:14:08 61° NNW
Cosmos 1633 Rocket 4.4 20:17:51 37° NNW 20:17:51 37° NNW 20:20:48 10° N
Cosmos 2227 Rocket 2.4 20:18:01 65° NNE 20:18:01 65° NNE 20:22:49 10° NNE
NOSS 2-2 (D) 4.4 20:13:51 10° NW 20:19:29 86° NE 20:19:36 85° E
CZ-4C R/B 4.0 20:13:39 10° NNW 20:20:17 39° NE 20:24:28 24° E
Cosmos 1269 Rocket 4.5 20:24:13 58° NW 20:24:13 58° NW 20:28:54 10° NNE
Timation 2 Rocket 4.1 20:25:17 63° ENE 20:25:17 63° ENE 20:30:32 10° NNE
Cosmos 2263 Rocket 4.3 20:26:36 15° ENE 20:26:36 15° ENE 20:28:16 10° ENE
Cosmos 2219 Rocket 4.1 20:22:55 10° WNW 20:26:12 17° W 20:26:12 17° W
USA 234 4.2 20:28:23 22° E 20:32:15 44° NNE 20:38:22 10° NW
Timation 1 Rocket 4.4 20:35:07 73° NNE 20:35:07 73° NNE 20:40:32 10° NNE
ATLAS 5 CENTAUR R/B 3.7 20:32:07 10° WNW 20:36:03 28° W 20:36:03 28° W
BREEZE-M R/B 4.0 20:42:37 37° NNW 20:42:57 37° N 20:48:10 10° ENE
CZ-3B R/B 4.1 20:40:58 10° NW 20:43:40 23° WNW 20:43:40 23° WNW
SL-16 R/B 2.5 20:40:10 10° NNW 20:45:12 60° NNE 20:45:12 60° NNE
BREEZE-M DEB (TANK) 4.1 20:40:00 10° W 20:50:39 65° NNW 20:51:26 56° NNE
Cosmos 2181 Rocket 4.2 20:54:34 10° N 21:00:33 60° ENE 21:00:33 60° ENE
ATLAS CENTAUR R/B 4.1 21:06:58 13° NE 21:06:58 13° NE 21:07:26 10° NE
Thor Agena Rocket 4.3 20:59:43 10° NNE 21:03:19 45° NE 21:03:19 45° NE
Cosmos 1709 Rocket 4.2 21:16:36 62° WNW 21:16:36 62° WNW 21:22:48 10° N
Resurs 1-4 Rocket 4.2 21:22:18 10° NE 21:25:12 17° E 21:25:12 17° E
Cosmos 2251 Rocket 4.1 21:27:47 53° NNW 21:27:47 53° NNW 21:32:07 10° NNE
Meteor 1-11 Rocket 4.3 21:28:01 49° NW 21:28:01 49° NW 21:32:41 10° N
Lacrosse 5 4.3 21:29:29 10° WNW 21:33:10 20° NNW 21:36:51 10° NNE
Cosmos 2082 4.4 21:33:29 47° WNW 21:33:29 47° WNW 21:38:54 10° NNE
Cosmos 2344 3.6 21:34:49 58° ESE 21:34:54 58° ESE 21:42:18 10° NE
Cosmos 44 4.3 21:33:55 10° NNW 21:37:26 43° NNW 21:37:26 43° NNW
USA 267 4.1 21:36:13 10° NE 21:42:21 45° NNW 21:46:01 23° W
Cosmos 2297 Rocket 4.5 21:46:42 12° WNW 21:49:12 16° NW 21:52:37 10° N
Cosmos 407 Rocket 3.9 21:51:38 59° NNE 21:51:38 59° NNE 21:55:52 10° NNE
Cosmos 2184 Rocket 3.9 21:57:11 81° WNW 21:57:11 81° WNW 22:03:27 10° N
NOSS 3-3 (A) 4.0 21:59:07 66° NW 21:59:11 66° NW 22:05:39 10° NNE
NOSS 3-3 (C) 4.0 21:59:15 67° NW 21:59:18 67° NW 22:05:44 10° NNE
Cosmos 2227 Rocket 4.4 21:59:49 14° WNW 22:01:57 17° NW 22:05:31 10° N
Cosmos 2154 Rocket 3.9 22:06:16 82° ESE 22:06:19 82° E 22:12:33 10° N
Cosmos 2263 Rocket 2.4 22:08:16 65° NW 22:08:16 65° NW 22:13:39 10° NNE
Cosmos 2074 Rocket 4.1 22:08:53 64° WNW 22:08:53 64° WNW 22:14:59 10° N
CZ-4C R/B 3.0 22:01:55 10° NW 22:09:19 62° WSW 22:09:34 61° SW
Geosat 4.4 22:10:39 56° NNW 22:10:39 56° NNW 22:14:36 10° NNW
Cosmos 1603 3.7 22:08:41 10° NNW 22:13:59 78° N 22:13:59 78° N
USA 234 3.2 22:15:42 62° WSW 22:15:42 62° WSW 22:21:35 10° NW
Cosmos 1140 Rocket 4.0 22:16:11 55° NW 22:16:11 55° NW 22:20:45 10° NNE
Helios 1A 4.2 22:17:42 40° N 22:17:42 40° N 22:20:27 10° N
Iridium 4 Rocket 4.0 22:11:35 10° N 22:17:24 62° E 22:17:49 60° ESE
Meteor 2-9 Rocket 4.4 22:22:48 59° NW 22:22:48 59° NW 22:27:39 10° N
ADEOS Rocket 3.6 22:23:10 35° ESE 22:24:46 44° ENE 22:30:00 10° N
SL-16 R/B 4.3 22:25:39 10° WNW 22:27:03 14° WNW 22:27:03 14° WNW
Milstar 3 4.4 22:38:36 21° SE 22:38:36 21° SE 22:41:21 10° ESE
CZ-2D R/B 2.1 22:35:01 10° NNE 22:40:30 78° ESE 22:40:42 77° SE
ATLAS CENTAUR R/B 3.4 22:43:06 19° NW 22:43:06 19° NW 22:45:46 10° N
Cosmos 1975 Rocket 3.9 22:41:09 10° N 22:45:19 43° ENE 22:45:23 43° E
SL-16 R/B 2.5 22:44:14 57° SSE 22:45:37 83° ENE 22:51:51 10° NNW
Cosmos 1867 4.0 22:46:51 50° ESE 22:46:57 50° ESE 22:52:15 10° NE
Cosmos 1340 4.1 22:43:17 10° N 22:45:45 37° NNE 22:45:45 37° NNE
AQUA 4.1 22:43:29 10° NNE 22:48:08 58° E 22:48:08 58° E
NPP 3.6 22:43:55 10° NNE 22:49:19 76° ESE 22:49:43 72° SE
Cosmos 1908 Rocket 4.4 22:56:54 43° NW 22:56:54 43° NW 23:00:14 10° N
Cosmos 1943 3.9 22:53:48 10° NW 22:58:02 38° WNW 22:58:02 38° WNW
Cosmos 1954 Rocket 4.5 23:01:43 46° WNW 23:01:58 47° WNW 23:07:05 10° N
Cosmos 1850 Rocket 4.0 23:02:20 62° SE 23:02:53 67° ESE 23:08:05 10° NNE
Cosmos 1733 4.0 23:05:48 47° ENE 23:05:48 47° ENE 23:09:04 10° NNE
Resurs 1-4 Rocket 2.1 23:00:40 10° N 23:05:53 61° WNW 23:06:16 59° W
Cosmos 1674 3.6 23:04:08 10° N 23:06:51 45° NNW 23:06:51 45° NNW
Meteor 2-20 4.4 23:03:01 10° N 23:09:13 81° E 23:11:25 43° SSE
Cosmos 1818 3.5 23:03:50 10° NW 23:09:07 65° WSW 23:09:07 65° WSW
Cosmos 2218 Rocket 3.9 23:09:20 51° S 23:11:05 87° E 23:17:23 10° N
DNEPR-1 R/B 3.7 23:12:08 75° SSW 23:12:34 85° ESE 23:17:13 10° NE
Cosmos 1844 3.7 23:11:57 58° S 23:12:57 73° ESE 23:18:32 10° NNE
Cosmos 1844 Rocket 2.6 23:15:42 61° SSW 23:16:45 85° WNW 23:22:28 10° NNE
Cosmos 1763 Rocket 3.4 23:14:33 10° NNW 23:19:51 73° WSW 23:20:35 63° SSW
Helios 1B rocket 2.6 23:20:32 10° N 23:24:22 58° WNW 23:24:22 58° WNW
ADEOS II 2.0 23:19:20 10° NNE 23:24:37 87° WNW 23:25:48 56° SSW
Cosmos 2341 Rocket 4.3 23:24:08 43° WSW 23:25:22 49° WNW 23:31:22 10° N
Cosmos 540 Rocket 3.6 23:20:48 10° NNW 23:26:00 71° ENE 23:29:05 24° SSE
Cosmos 1805 3.4 23:27:54 62° NW 23:27:54 62° NW 23:31:26 10° N
Meteor 2-5 Rocket 4.4 23:24:53 10° N 23:30:37 54° ENE 23:35:47 12° SSE
Cosmos 2278 Rocket 4.2 23:29:18 10° SSE 23:33:20 21° E 23:37:25 10° NE
Cosmos 1400 Rocket 3.3 23:38:14 44° WNW 23:38:14 44° WNW 23:41:47 10° N
NOSS 3-4 (A) 3.9 23:36:23 10° NW 23:43:22 57° WSW 23:51:05 10° SSE
NOSS 3-4 (C) 3.9 23:36:29 10° NW 23:43:28 57° WSW 23:51:13 10° SSE
Cosmos 1821 Rocket 4.1 23:41:04 26° S 23:44:39 69° E 23:50:43 10° NNE
X-37B 1.0 23:47:49 59° E 23:47:49 59° E 23:50:32 10° ENE
Cosmos 1626 3.0 23:48:01 10° NNW 23:50:43 34° WNW 23:50:43 34° WNW
Aureole 1 Rocket 4.2 23:48:31 33° SSW 23:51:42 88° ESE 23:59:34 10° NNE
FALCON 9 DEB 3.6 23:52:17 43° ESE 23:52:17 43° ESE 23:54:46 10° ENE
Meteor 1-22 Rocket 4.3 23:49:05 28° S 23:52:03 74° E 23:57:28 10° NNE
ATLAS 2AS CENTAUR R/B 2.7 23:45:29 10° NW 23:52:46 89° WSW 23:59:25 10° SSE
Cosmos 2263 Rocket 4.5 23:50:45 10° WNW 23:53:01 12° NW 23:55:18 10° NNW
Iridium 51 4.4 23:52:25 41° SSE 23:53:28 62° E 23:57:12 10° N
MINOTAUR 4 R/B 4.4 23:54:17 46° WNW 23:54:17 46° WNW 23:57:20 10° NNW
Meteor 1-29 3.4 23:50:46 10° N 23:53:43 44° WNW 23:53:43 44° WNW
